Overview Statistics Trail Chart Weather Telemetry Raw packets
 

This is the latest recevied weather packets stored in our database for station/object K4WCH. If no packets are shown the sender has not sent any weather packets the latest 10 day(s).

<< 5 6 7 8 9 10 11 >>
Time Temp. Humidity Pressure Rain* Wind** Luminosity Snow
1788623557 30° C 79% 1015.1 hPa 0 mm - 417 W/m² -
1788623251 30° C 80% 1015.2 hPa 0 mm - 382 W/m² -
1788622947 30° C 81% 1015.2 hPa 0 mm - 374 W/m² -
1788622642 30° C 82% 1015.4 hPa 0 mm - 333 W/m² -
1788622339 30° C 82% 1015.3 hPa 0 mm - 330 W/m² -
1788622033 30° C 81% 1015.2 hPa 0 mm - 316 W/m² -
1788621727 30° C 83% 1015.4 hPa 0 mm - 309 W/m² -
1788621427 29.44° C 82% 1015.3 hPa 0 mm - 300 W/m² -
1788621123 30° C 83% 1015.5 hPa 0 mm - 302 W/m² -
1788620818 29.44° C 82% 1015.4 hPa 0 mm - 297 W/m² -
1788620516 29.44° C 83% 1015.4 hPa 0 mm - 283 W/m² -
1788620214 29.44° C 83% 1015.5 hPa 0 mm - 279 W/m² -
1788619909 29.44° C 84% 1015.3 hPa 0 mm - 264 W/m² -
1788619603 28.89° C 85% 1015.1 hPa 0 mm - 258 W/m² -
1788619303 28.89° C 85% 1015.4 hPa 0 mm - 253 W/m² -
1788618997 28.89° C 85% 1015.5 hPa 0 mm - 257 W/m² -
1788618692 28.89° C 86% 1015.1 hPa 0 mm - 262 W/m² -
1788618391 28.89° C 84% 1015 hPa 0 mm - 276 W/m² -
1788618091 28.89° C 83% 1015.1 hPa 0 mm - 314 W/m² -
1788617791 28.89° C 85% 1015.1 hPa 0 mm - 313 W/m² -
1788617487 29.44° C 83% 1015.1 hPa 0 mm - 336 W/m² -
1788617182 29.44° C 83% 1015 hPa 0 mm - 628 W/m² -
1788616881 29.44° C 85% 1015 hPa 0 mm - 701 W/m² -
1788616576 29.44° C 85% 1015.1 hPa 0 mm - 680 W/m² -
1788616272 28.89° C 85% 1015.2 hPa 0 mm - 638 W/m² -

* Rain latest hour (hover to see other rain measurements)
** Current wind speed in m/s (hover to see current wind gust speed)